{"data":{"norad_id":66251,"intl_designator":"2025-245T","name":"STARLINK-35485","alt_names":[],"object_type":"PAYLOAD","status":"ACTIVE","operator":null,"country":"US","launch_date":"2025-10-29","launch_site_code":"AFETR","launch_vehicle":null,"mission":null,"orbit_class":"UNKNOWN","rcs_meters":null,"size_class":null,"mass_kg":null,"dimensions":null,"purposes":["comms"],"wikipedia_slug":null,"has_3d_model":false,"image_url":null,"decayed_at":null,"tle_current":{"epoch":"2026-09-19T19:58:04.373184Z","epoch_age_seconds":154437,"freshness":"FRESH","line1":"1 66251U 25245T   26262.83199506  .00017308  00000+0  56785-3 0  9999","line2":"2 66251  53.1584 100.4853 0001015  89.8966 270.2152 15.31719299 50788","mean_motion":15.31719299,"eccentricity":0.0001015,"inclination_deg":53.1584,"raan_deg":100.4853,"arg_perigee_deg":89.8966,"mean_anomaly_deg":270.2152,"bstar":0.00056785,"rev_number":5078,"period_min":94.012003435624,"perigee_km":469.98731133907,"apogee_km":471.37762169077,"semimajor_km":6848.8194665149,"source":"CELESTRAK","updated_at":"2026-09-21T09:00:35.849347Z"}}}